Home   Weather   Charleroi   Past weeks
Flag for Belgium

Past Weather in Charleroi, Hainaut, Belgium — Yesterday and Last 2 Weeks

Now
70 °F

Sunny.


Feels Like: 70 °F
Forecast: 71 / 49 °F
Wind: 13 mph from Northeast

Location: Charleroi / Gosselies

Current Time: Apr 9, 2020 at 7:12:12 pm

Latest Report: Apr 9, 2020 at 6:20 pm


Visibility: 10 mi

Pressure: 30.24 "Hg

Humidity: 40%

Dew Point: 45 °F

Location of CharleroiLocation

Past Weather in Charleroi — Graph

°F

Charleroi Temperature Yesterday

Maximum temperature yesterday: 75 °F (at 2:50 pm)
Minimum temperature yesterday: 54 °F (at 12:20 am)
Average temperature yesterday: 63 °F

High & Low Weather Summary for the Past Weeks

 TemperatureHumidityPressure
High75 °F (Apr 8, 2:50 pm)100% (Mar 31, 6:50 am)30.51 "Hg (Mar 31, 6:50 am)
Low27 °F (Mar 30, 7:20 am)21% (Apr 5, 4:20 pm)29.92 "Hg (Apr 2, 5:20 pm)
Average47 °F58%30.19 "Hg
* Reported Mar 25 4:20 pm — Apr 9 5:50 pm, Charleroi. Weather by CustomWeather, © 2020

Note: Actual official high and low records may vary slightly from our data, if they occured in-between our weather recording intervals... More about our weather records

Charleroi Weather History for the Previous 24 Hours

Scroll right to see more
 ConditionsComfort  
Time TempWeatherWind HumidityBarometerVisibility
5:50 pm
Thu, Apr 9
70 °FPassing clouds.13 mph40%30.24 "HgN/A
5:20 pm72 °FPassing clouds.10 mph38%30.24 "HgN/A
4:50 pm72 °FPassing clouds.8 mph38%30.24 "HgN/A
4:20 pm72 °FPassing clouds.9 mph41%30.24 "HgN/A
3:20 pm70 °FPassing clouds.8 mph43%30.24 "HgN/A
2:50 pm70 °FPassing clouds.8 mph40%30.27 "HgN/A
1:50 pm70 °FPassing clouds.8 mph46%30.27 "HgN/A
1:20 pm68 °FPassing clouds.8 mph49%30.27 "HgN/A
12:50 pm68 °FPassing clouds.9 mph49%30.27 "HgN/A
12:20 pm66 °FClear.10 mph52%30.27 "Hg6 mi
11:50 am66 °FClear.10 mph52%30.27 "Hg6 mi
11:20 am63 °FClear.7 mph59%30.27 "Hg6 mi
10:50 am61 °FClear.7 mph63%30.27 "Hg4 mi
10:20 am59 °FClear.8 mph68%30.27 "Hg4 mi
9:50 am59 °FClear.8 mph63%30.27 "Hg4 mi
9:20 am55 °FClear.7 mph77%30.24 "Hg4 mi
8:50 am52 °FClear.8 mph82%30.24 "Hg4 mi
8:20 am52 °FSunny.8 mph77%30.24 "Hg5 mi
7:50 am50 °FPassing clouds.3 mph71%30.24 "HgN/A
7:20 am50 °FSunny.5 mph67%30.21 "Hg10 mi
6:50 am50 °FClear.3 mph67%30.21 "Hg10 mi
6:20 am52 °FClear.2 mph62%30.21 "Hg10 mi
5:50 am52 °FClear.1 mph58%30.21 "Hg10 mi
5:20 am54 °FClear.2 mph63%30.21 "Hg10 mi
4:50 am54 °FClear.2 mph58%30.21 "Hg10 mi
4:20 am55 °FClear.2 mph55%30.21 "Hg10 mi
3:20 am57 °FClear.2 mph51%30.21 "Hg10 mi
2:50 am57 °FClear.3 mph51%30.21 "Hg10 mi
2:20 am59 °FClear.3 mph48%30.21 "Hg10 mi
1:50 am59 °FClear.3 mph48%30.21 "Hg10 mi
1:20 am57 °FClear.3 mph51%30.21 "Hg10 mi
12:50 am57 °FClear.1 mph51%30.21 "Hg10 mi
12:20 am59 °FClear.1 mph48%30.21 "Hg10 mi
11:50 pm
Wed, Apr 8
59 °FClear.2 mph51%30.21 "Hg10 mi
11:20 pm61 °FClear.2 mph48%30.21 "Hg10 mi
10:50 pm63 °FClear.3 mph45%30.21 "Hg10 mi
10:20 pm61 °FClear.6 mph48%30.21 "Hg10 mi
9:50 pm64 °FClear.5 mph43%30.21 "Hg10 mi
9:20 pm66 °FClear.5 mph35%30.21 "Hg10 mi
8:50 pm66 °FClear.2 mph37%30.21 "Hg10 mi
8:20 pm68 °FSunny.No wind33%30.18 "Hg10 mi
7:50 pm70 °FSunny.2 mph33%30.18 "Hg10 mi
7:20 pm70 °FSunny.5 mph31%30.18 "Hg10 mi
Weather by CustomWeather, © 2020

See weather overview

Advertising